�������l�o���
Date,Time,MP-1(��Sv/h),MP-2(��Sv/h),MP-3(��Sv/h),MP-4(��Sv/h),MP-5(��Sv/h),MP-6(��Sv/h),MP-7(��Sv/h),MP-8(��Sv/h),����,����(m/s),���J
2017/03/27,00:00,0.991,1.618,1.115,1.933,1.328,0.535,0.989,0.918,�k�k��,5.5,�L
2017/03/27,00:10,0.991,1.617,1.116,1.929,1.328,0.537,0.987,0.917,�k�k��,6.0,�L
2017/03/27,00:20,0.991,1.617,1.116,1.931,1.328,0.538,0.988,0.919,�k�k��,6.7,�L
2017/03/27,00:30,0.995,1.618,1.114,1.931,1.326,0.537,0.986,0.917,�k�k��,6.5,�L
2017/03/27,00:40,0.994,1.619,1.116,1.933,1.327,0.537,0.989,0.918,�k�k��,7.1,�L
2017/03/27,00:50,0.994,1.619,1.116,1.933,1.332,0.536,0.989,0.918,�k�k��,7.0,�L
2017/03/27,01:00,0.993,1.615,1.117,1.932,1.330,0.537,0.987,0.917,�k�k��,7.1,�L
2017/03/27,01:10,0.993,1.620,1.113,1.933,1.328,0.537,0.989,0.918,�k�k��,7.5,�L
2017/03/27,01:20,0.995,1.622,1.116,1.932,1.330,0.538,0.988,0.919,�k�k��,6.9,�L
2017/03/27,01:30,0.993,1.619,1.117,1.934,1.331,0.537,0.988,0.921,�k�k��,7.0,�L
2017/03/27,01:40,0.994,1.622,1.118,1.932,1.331,0.537,0.988,0.918,�k�k��,6.5,�L
2017/03/27,01:50,0.992,1.620,1.117,1.933,1.331,0.536,0.990,0.920,�k�k��,7.2,�L
2017/03/27,02:00,0.993,1.622,1.116,1.933,1.328,0.538,0.986,0.919,�k�k��,7.1,�L
2017/03/27,02:10,0.996,1.621,1.114,1.932,1.327,0.537,0.988,0.917,�k�k��,7.3,�L
2017/03/27,02:20,0.992,1.615,1.113,1.930,1.324,0.536,0.988,0.919,�k�k��,7.3,�L
2017/03/27,02:30,0.990,1.610,1.108,1.928,1.323,0.537,0.988,0.919,�k�k��,6.2,�L
2017/03/27,02:40,0.988,1.602,1.106,1.918,1.316,0.537,0.985,0.916,�k,7.2,�L
2017/03/27,02:50,0.987,1.599,1.106,1.914,1.314,0.534,0.984,0.916,�k,6.2,�L
2017/03/27,03:00,0.986,1.598,1.105,1.909,1.315,0.535,0.985,0.918,�k,6.0,�L
2017/03/27,03:10,0.986,1.598,1.102,1.909,1.315,0.533,0.984,0.917,�k,5.5,�L
2017/03/27,03:20,0.988,1.600,1.105,1.913,1.316,0.535,0.985,0.917,�k��,7.2,�L
2017/03/27,03:30,0.987,1.598,1.104,1.908,1.314,0.534,0.985,0.916,�k�k��,7.7,�L
2017/03/27,03:40,0.986,1.599,1.105,1.912,1.313,0.537,0.983,0.917,�k�k��,7.9,�L
2017/03/27,03:50,0.985,1.596,1.102,1.907,1.312,0.536,0.984,0.914,�k�k��,7.0,�L
2017/03/27,04:00,0.982,1.600,1.103,1.907,1.313,0.535,0.984,0.917,�k�k��,7.9,�L
2017/03/27,04:10,0.983,1.596,1.103,1.907,1.312,0.537,0.983,0.916,�k�k��,7.0,�L
2017/03/27,04:20,0.983,1.599,1.105,1.904,1.314,0.536,0.984,0.917,�k�k��,7.2,�L
2017/03/27,04:30,0.983,1.600,1.104,1.908,1.312,0.535,0.984,0.916,�k,7.9,�L
2017/03/27,04:40,0.984,1.596,1.103,1.908,1.312,0.536,0.984,0.915,�k�k��,7.8,�L
2017/03/27,04:50,0.979,1.594,1.100,1.899,1.307,0.535,0.983,0.914,�k�k��,7.5,�L
2017/03/27,05:00,0.979,1.588,1.096,1.896,1.305,0.534,0.981,0.913,�k,7.1,�L
2017/03/27,05:10,0.975,1.584,1.095,1.893,1.300,0.534,0.979,0.915,�k,8.6,�L
2017/03/27,05:20,0.971,1.582,1.094,1.885,1.299,0.532,0.978,0.913,�k,9.0,�L
2017/03/27,05:30,0.975,1.579,1.094,1.891,1.296,0.530,0.978,0.911,�k,9.0,�L
2017/03/27,05:40,0.972,1.580,1.092,1.887,1.297,0.531,0.977,0.913,�k,7.9,�L
2017/03/27,05:50,0.976,1.581,1.091,1.887,1.294,0.531,0.978,0.911,�k,9.5,�L
2017/03/27,06:00,0.973,1.578,1.088,1.886,1.292,0.531,0.978,0.909,�k,9.0,�L
2017/03/27,06:10,0.971,1.576,1.088,1.883,1.287,0.530,0.977,0.911,�k�k��,8.4,�L
2017/03/27,06:20,0.971,1.573,1.087,1.878,1.287,0.529,0.976,0.909,�k,8.0,�L
2017/03/27,06:30,0.972,1.574,1.088,1.878,1.286,0.530,0.974,0.910,�k,7.6,�L
2017/03/27,06:40,0.971,1.573,1.088,1.879,1.282,0.530,0.973,0.908,�k,5.6,�L
2017/03/27,06:50,0.968,1.569,1.085,1.874,1.279,0.526,0.973,0.909,�k,7.2,�L
2017/03/27,07:00,0.969,1.566,1.085,1.873,1.276,0.528,0.972,0.909,�k,8.2,�L
2017/03/27,07:10,0.968,1.566,1.086,1.874,1.275,0.528,0.972,0.907,�k,9.5,�L
2017/03/27,07:20,0.967,1.567,1.084,1.875,1.277,0.529,0.973,0.908,�k,7.1,�L
2017/03/27,07:30,0.962,1.562,1.082,1.871,1.277,0.526,0.972,0.907,�k�k��,8.0,�L
2017/03/27,07:40,0.959,1.555,1.076,1.863,1.262,0.526,0.969,0.908,�k�k��,8.8,�L
2017/03/27,07:50,0.956,1.553,1.072,1.855,1.253,0.525,0.965,0.903,�k�k��,8.6,�L
2017/03/27,08:00,0.953,1.546,1.067,1.851,1.243,0.524,0.960,0.901,�k�k��,8.6,�L
2017/03/27,08:10,0.949,1.535,1.060,1.841,1.228,0.520,0.954,0.899,�k�k��,9.3,�L
2017/03/27,08:20,0.942,1.525,1.051,1.832,1.221,0.518,0.947,0.896,�k�k��,10.1,�L
2017/03/27,08:30,0.938,1.511,1.044,1.824,1.207,0.518,0.943,0.895,�k�k��,10.4,�L
2017/03/27,08:40,0.930,1.499,1.037,1.816,1.198,0.514,0.939,0.894,�k�k��,10.2,�L
2017/03/27,08:50,0.927,1.491,1.026,1.806,1.189,0.510,0.934,0.890,�k�k��,9.8,�L
2017/03/27,09:00,0.922,1.479,1.018,1.799,1.184,0.511,0.931,0.886,�k�k��,9.2,�L
2017/03/27,09:10,0.913,1.466,1.014,1.791,1.174,0.508,0.929,0.884,�k�k��,9.6,�L
2017/03/27,09:20,0.910,1.459,1.009,1.781,1.166,0.506,0.922,0.880,�k�k��,9.4,�L
2017/03/27,09:30,0.905,1.456,1.005,1.777,1.163,0.505,0.923,0.880,�k�k��,9.0,�L
2017/03/27,09:40,0.898,1.453,1.002,1.769,1.154,0.507,0.923,0.880,�k�k��,9.9,�L
2017/03/27,09:50,0.896,1.443,0.997,1.764,1.148,0.506,0.921,0.878,�k�k��,10.6,�L
2017/03/27,10:00,0.893,1.435,0.995,1.756,1.143,0.506,0.918,0.879,�k�k��,10.9,�L
2017/03/27,10:10,0.889,1.426,0.991,1.750,1.137,0.504,0.916,0.877,�k�k��,10.6,�L
2017/03/27,10:20,0.885,1.424,0.987,1.744,1.133,0.503,0.913,0.874,�k�k��,9.9,�L
2017/03/27,10:30,0.879,1.418,0.983,1.738,1.126,0.502,0.912,0.875,�k�k��,10.0,�L
2017/03/27,10:40,0.876,1.412,0.981,1.731,1.121,0.500,0.910,0.874,�k�k��,9.6,�L
2017/03/27,10:50,0.871,1.407,0.977,1.724,1.119,0.499,0.910,0.872,�k�k��,10.4,�L
2017/03/27,11:00,0.868,1.401,0.974,1.721,1.112,0.498,0.908,0.870,�k�k��,9.2,�L
2017/03/27,11:10,0.863,1.396,0.969,1.715,1.107,0.496,0.909,0.869,�k�k��,10.8,�L
2017/03/27,11:20,0.862,1.394,0.968,1.708,1.099,0.495,0.908,0.868,�k�k��,9.6,�L
2017/03/27,11:30,0.858,1.388,0.964,1.703,1.100,0.495,0.906,0.870,�k�k��,10.0,�L
2017/03/27,11:40,0.856,1.384,0.962,1.700,1.096,0.494,0.905,0.868,�k�k��,11.8,�L
2017/03/27,11:50,0.853,1.378,0.960,1.694,1.090,0.492,0.902,0.865,�k�k��,9.6,�L
2017/03/27,12:00,0.850,1.373,0.958,1.688,1.085,0.491,0.899,0.866,�k�k��,9.7,�L
2017/03/27,12:10,0.847,1.367,0.954,1.682,1.083,0.489,0.901,0.865,�k�k��,10.8,�L
2017/03/27,12:20,0.844,1.362,0.950,1.677,1.078,0.489,0.896,0.865,�k�k��,10.6,�L
2017/03/27,12:30,0.840,1.351,0.949,1.673,1.075,0.486,0.896,0.863,�k��,11.6,�L
2017/03/27,12:40,0.839,1.350,0.948,1.667,1.072,0.486,0.892,0.864,�k�k��,11.3,�L
2017/03/27,12:50,0.836,1.348,0.948,1.663,1.073,0.487,0.893,0.865,�k�k��,9.7,�L
2017/03/27,13:00,0.833,1.347,0.945,1.660,1.067,0.486,0.895,0.863,�k�k��,11.6,�L
2017/03/27,13:10,0.834,1.346,0.948,1.660,1.069,0.485,0.896,0.865,�k�k��,10.9,�L
2017/03/27,13:20,0.832,1.347,0.946,1.659,1.068,0.485,0.899,0.868,�k�k��,11.0,�L
2017/03/27,13:30,0.832,1.350,0.949,1.659,1.066,0.485,0.902,0.869,�k�k��,9.7,�L
2017/03/27,13:40,0.832,1.352,0.950,1.661,1.068,0.486,0.904,0.870,�k�k��,11.0,�L
2017/03/27,13:50,0.834,1.357,0.955,1.666,1.067,0.485,0.907,0.873,�k�k��,10.3,�L
2017/03/27,14:00,0.836,1.358,0.955,1.670,1.070,0.488,0.911,0.874,�k�k��,10.2,�L
2017/03/27,14:10,0.837,1.364,0.960,1.671,1.068,0.488,0.914,0.875,�k�k��,9.2,�L
2017/03/27,14:20,0.842,1.371,0.966,1.682,1.070,0.488,0.915,0.876,�k�k��,11.0,�L
2017/03/27,14:30,0.843,1.375,0.967,1.682,1.072,0.489,0.918,0.877,�k�k��,10.8,�L
2017/03/27,14:40,0.844,1.377,0.971,1.688,1.081,0.489,0.919,0.879,�k�k��,10.5,�L
2017/03/27,14:50,0.846,1.384,0.976,1.695,1.083,0.491,0.922,0.881,�k�k��,10.5,�L
2017/03/27,15:00,0.849,1.392,0.977,1.700,1.086,0.493,0.923,0.885,�k�k��,10.2,�L
2017/03/27,15:10,0.852,1.397,0.983,1.705,1.094,0.495,0.926,0.885,�k�k��,10.1,�L
2017/03/27,15:20,0.855,1.403,0.984,1.713,1.097,0.493,0.926,0.885,�k�k��,10.1,�L
2017/03/27,15:30,0.857,1.406,0.991,1.716,1.103,0.495,0.930,0.887,�k�k��,9.4,�L
2017/03/27,15:40,0.858,1.409,0.991,1.720,1.109,0.496,0.932,0.889,�k�k��,9.5,�L
2017/03/27,15:50,0.859,1.415,0.996,1.726,1.112,0.499,0.934,0.888,�k�k��,9.7,�L
2017/03/27,16:00,0.865,1.420,0.998,1.732,1.117,0.501,0.934,0.891,�k�k��,9.1,�L
2017/03/27,16:10,0.866,1.420,1.001,1.733,1.121,0.501,0.939,0.892,�k�k��,8.3,�L
2017/03/27,16:20,0.867,1.428,1.005,1.738,1.126,0.501,0.937,0.892,�k�k��,9.2,�L
2017/03/27,16:30,0.871,1.429,1.008,1.741,1.128,0.504,0.940,0.893,�k�k��,9.9,�L
2017/03/27,16:40,0.871,1.434,1.010,1.747,1.133,0.505,0.940,0.892,�k�k��,9.5,�L
2017/03/27,16:50,0.877,1.437,1.014,1.749,1.136,0.506,0.943,0.893,�k�k��,10.0,�L
2017/03/27,17:00,0.876,1.440,1.017,1.755,1.141,0.509,0.944,0.895,�k�k��,9.4,�L
2017/03/27,17:10,0.877,1.442,1.017,1.755,1.143,0.507,0.945,0.895,�k�k��,10.6,��
2017/03/27,17:20,0.880,1.448,1.016,1.761,1.146,0.507,0.946,0.894,�k�k��,9.8,�L
2017/03/27,17:30,0.882,1.450,1.020,1.761,1.152,0.508,0.949,0.894,�k�k��,9.6,�L
2017/03/27,17:40,0.883,1.452,1.024,1.768,1.154,0.514,0.949,0.896,�k��,8.8,��
2017/03/27,17:50,0.886,1.455,1.026,1.771,1.156,0.511,0.949,0.895,�k��,8.9,��
2017/03/27,18:00,0.888,1.459,1.030,1.772,1.158,0.513,0.949,0.896,�k��,8.8,��
2017/03/27,18:10,0.887,1.461,1.031,1.777,1.161,0.513,0.952,0.898,�k��,8.6,��
2017/03/27,18:20,0.890,1.463,1.031,1.777,1.161,0.513,0.952,0.899,�k�k��,8.7,��
2017/03/27,18:30,0.891,1.470,1.033,1.780,1.163,0.513,0.950,0.900,�k��,9.7,��
2017/03/27,18:40,0.894,1.470,1.037,1.783,1.168,0.514,0.953,0.900,�k�k��,9.7,��
2017/03/27,18:50,0.894,1.470,1.039,1.783,1.170,0.516,0.954,0.901,�k�k��,9.8,��
2017/03/27,19:00,0.895,1.475,1.041,1.787,1.171,0.515,0.954,0.901,�k�k��,8.9,��
2017/03/27,19:10,0.897,1.477,1.041,1.790,1.175,0.517,0.954,0.902,�k�k��,8.6,��
2017/03/27,19:20,0.899,1.476,1.043,1.792,1.176,0.515,0.954,0.900,�k�k��,9.0,��
2017/03/27,19:30,0.899,1.478,1.043,1.796,1.178,0.517,0.958,0.900,�k�k��,9.4,��
2017/03/27,19:40,0.902,1.482,1.045,1.798,1.179,0.518,0.956,0.904,�k�k��,8.4,��
2017/03/27,19:50,0.903,1.486,1.049,1.799,1.181,0.517,0.959,0.903,�k�k��,8.8,��
2017/03/27,20:00,0.904,1.488,1.047,1.800,1.184,0.519,0.958,0.903,�k�k��,9.3,��
2017/03/27,20:10,0.907,1.491,1.049,1.802,1.182,0.518,0.959,0.904,�k�k��,8.5,��
2017/03/27,20:20,0.907,1.489,1.050,1.806,1.187,0.519,0.958,0.904,�k�k��,9.1,��
2017/03/27,20:30,0.908,1.493,1.053,1.803,1.187,0.520,0.960,0.902,�k�k��,8.3,��
2017/03/27,20:40,0.909,1.494,1.053,1.807,1.188,0.520,0.960,0.903,�k�k��,8.3,��
2017/03/27,20:50,0.908,1.495,1.055,1.810,1.186,0.519,0.962,0.904,�k�k��,7.5,��
2017/03/27,21:00,0.911,1.498,1.057,1.813,1.192,0.521,0.963,0.904,�k�k��,7.7,��
2017/03/27,21:10,0.910,1.497,1.054,1.813,1.193,0.521,0.962,0.904,�k�k��,7.6,��
2017/03/27,21:20,0.913,1.499,1.058,1.817,1.193,0.521,0.961,0.905,�k�k��,7.2,��
2017/03/27,21:30,0.911,1.502,1.059,1.817,1.195,0.523,0.963,0.905,�k�k��,6.3,��
2017/03/27,21:40,0.916,1.504,1.060,1.817,1.197,0.522,0.963,0.905,�k��,5.9,��
2017/03/27,21:50,0.913,1.504,1.061,1.820,1.199,0.522,0.961,0.903,�k��,6.2,�L
2017/03/27,22:00,0.916,1.507,1.061,1.822,1.198,0.521,0.963,0.906,�k��,6.0,��
2017/03/27,22:10,0.916,1.506,1.061,1.821,1.199,0.523,0.962,0.905,�k�k��,6.4,��
2017/03/27,22:20,0.916,1.507,1.063,1.824,1.202,0.523,0.965,0.904,�k�k��,5.6,��
2017/03/27,22:30,0.916,1.509,1.065,1.824,1.203,0.523,0.966,0.905,�k�k��,5.9,��
2017/03/27,22:40,0.919,1.510,1.065,1.824,1.203,0.525,0.964,0.906,�k�k��,6.2,�L
2017/03/27,22:50,0.917,1.507,1.064,1.828,1.205,0.524,0.965,0.905,�k�k��,5.5,��
2017/03/27,23:00,0.921,1.515,1.064,1.830,1.207,0.523,0.964,0.906,�k�k��,5.3,�L
2017/03/27,23:10,0.920,1.514,1.067,1.830,1.205,0.524,0.966,0.905,�k�k��,5.4,�L
2017/03/27,23:20,0.920,1.514,1.066,1.832,1.207,0.525,0.965,0.907,�k�k��,5.3,�L
2017/03/27,23:30,0.920,1.514,1.065,1.831,1.210,0.525,0.965,0.906,�k�k��,4.7,�L
2017/03/27,23:40,0.921,1.514,1.063,1.832,1.207,0.524,0.964,0.906,�k�k��,4.5,�L
2017/03/27,23:50,0.922,1.517,1.065,1.829,1.207,0.525,0.965,0.904,�k��,4.4,�L
